This is the latest recevied weather packets stored in our database for station/object W5CRT. If no packets are shown the sender has not sent any weather packets the latest 10 day(s).
| Time | Temp. | Humidity | Pressure | Rain* | Wind** | Luminosity | Snow |
|---|---|---|---|---|---|---|---|
| 1778194638 | 22.22° C | 52% | 1012.9 hPa | 0 mm | - | 140 W/m² | - |
| 1778194335 | 22.22° C | 53% | 1013.1 hPa | 0 mm | - | 133 W/m² | - |
| 1778194030 | 22.78° C | 52% | 1013.3 hPa | 0 mm | - | 153 W/m² | - |
| 1778193727 | 22.78° C | 49% | 1013.1 hPa | 0 mm | - | 166 W/m² | - |
| 1778193423 | 22.78° C | 51% | 1013.1 hPa | 0 mm | - | 192 W/m² | - |
| 1778193120 | 22.78° C | 51% | 1013.3 hPa | 0 mm | - | 188 W/m² | - |
| 1778192817 | 22.78° C | 52% | 1013.5 hPa | 0 mm | - | 186 W/m² | - |
| 1778192513 | 22.78° C | 51% | 1013.5 hPa | 0 mm | - | 182 W/m² | - |
| 1778192210 | 22.78° C | 48% | 1013.5 hPa | 0 mm | - | 201 W/m² | - |
| 1778191906 | 22.78° C | 50% | 1013.4 hPa | 0 mm | - | 230 W/m² | - |
| 1778191603 | 22.78° C | 49% | 1013.5 hPa | 0 mm | - | 295 W/m² | - |
| 1778191302 | 22.78° C | 51% | 1013.4 hPa | 0 mm | - | 276 W/m² | - |
| 1778190997 | 23.33° C | 50% | 1013.5 hPa | 0 mm | - | 278 W/m² | - |
| 1778190695 | 23.33° C | 47% | 1013.6 hPa | 0 mm | - | 303 W/m² | - |
| 1778190392 | 23.33° C | 48% | 1013.5 hPa | 0 mm | - | 310 W/m² | - |
| 1778190088 | 23.89° C | 48% | 1013.6 hPa | 0 mm | - | 290 W/m² | - |
| 1778189784 | 23.89° C | 45% | 1013.5 hPa | 0 mm | - | 315 W/m² | - |
| 1778189482 | 23.89° C | 45% | 1013.8 hPa | 0 mm | - | 475 W/m² | - |
| 1778189178 | 23.33° C | 49% | 1013.9 hPa | 0 mm | - | 378 W/m² | - |
| 1778188875 | 23.33° C | 47% | 1014 hPa | 0 mm | - | 364 W/m² | - |
| 1778188572 | 23.33° C | 44% | 1013.7 hPa | 0 mm | - | 361 W/m² | - |
| 1778188267 | 23.89° C | 45% | 1013.7 hPa | 0 mm | - | 548 W/m² | - |
| 1778187965 | 23.89° C | 46% | 1013.7 hPa | 0 mm | - | 640 W/m² | - |
| 1778187661 | 23.33° C | 49% | 1013.8 hPa | 0 mm | - | 583 W/m² | - |
| 1778187358 | 23.33° C | 47% | 1013.8 hPa | 0 mm | - | 515 W/m² | - |
* Rain latest hour (hover to see other rain measurements)
** Current wind speed in m/s (hover to see current wind gust speed)